• In Russia
  • List of Countries
  • For 7 days
  • Water Temperature
  • Satellite Maps
  • Weather Map
  • Weather Widgets
  • user-avatar
    Login

    Hourly Weather Gjirokaster

    Today, 27 July, Thursday

    Time Temperature Precipitation Wind Pressure Humidity
    00:00 +13°C° 0 mm 1 mps 647 mmHg 80%
    01:00 +12°C° 0 mm 1 mps 647 mmHg 82%
    02:00 +12°C° 0 mm 1 mps 647 mmHg 83%
    03:00 +12°C° 0 mm 1 mps 647 mmHg 84%
    04:00 +10°C° 0 mm 2 mps 647 mmHg 85%
    05:00 +13°C° 0 mm 2 mps 647 mmHg 78%
    06:00 +14°C° 0 mm 2 mps 647 mmHg 71%
    07:00 +16°C° 0 mm 2 mps 648 mmHg 61%
    08:00 +18°C° 0 mm 3 mps 648 mmHg 53%
    09:00 +19°C° 0 mm 4 mps 649 mmHg 46%
    10:00 +20°C° 0 mm 5 mps 649 mmHg 39%
    11:00 +21°C° 0 mm 5 mps 649 mmHg 39%
    12:00 +21°C° 0 mm 6 mps 650 mmHg 39%
    13:00 +22°C° 0 mm 6 mps 650 mmHg 39%
    14:00 +21°C° 0 mm 6 mps 650 mmHg 40%
    15:00 +21°C° 0 mm 6 mps 650 mmHg 42%
    16:00 +21°C° 0 mm 6 mps 650 mmHg 43%
    17:00 +19°C° 0 mm 5 mps 649 mmHg 49%
    18:00 +17°C° 0 mm 4 mps 649 mmHg 55%
    19:00 +14°C° 0 mm 4 mps 649 mmHg 62%
    20:00 +13°C° 0 mm 3 mps 649 mmHg 64%
    21:00 +13°C° 0 mm 3 mps 649 mmHg 67%
    22:00 +13°C° 0 mm 2 mps 649 mmHg 69%
    23:00 +12°C° 0 mm 2 mps 649 mmHg 69%

    Tomorrow, 28 July, Friday

    Time Temperature Precipitation Wind Pressure Humidity
    00:00 +12°C° 0 mm 2 mps 650 mmHg 69%
    01:00 +12°C° 0 mm 2 mps 650 mmHg 68%
    02:00 +12°C° 0 mm 2 mps 650 mmHg 68%
    03:00 +10°C° 0 mm 2 mps 650 mmHg 67%
    04:00 +10°C° 0 mm 2 mps 650 mmHg 67%
    05:00 +13°C° 0 mm 2 mps 650 mmHg 63%
    06:00 +15°C° 0 mm 2 mps 651 mmHg 60%
    07:00 +17°C° 0 mm 2 mps 651 mmHg 57%
    08:00 +18°C° 0 mm 3 mps 652 mmHg 51%
    09:00 +20°C° 0 mm 4 mps 653 mmHg 46%
    10:00 +21°C° 0 mm 4 mps 653 mmHg 41%
    11:00 +22°C° 0 mm 5 mps 653 mmHg 39%
    12:00 +23°C° 0 mm 5 mps 654 mmHg 37%
    13:00 +25°C° 0 mm 5 mps 654 mmHg 35%
    14:00 +23°C° 0 mm 5 mps 654 mmHg 36%
    15:00 +23°C° 0 mm 5 mps 654 mmHg 36%
    16:00 +23°C° 0 mm 5 mps 653 mmHg 37%
    17:00 +21°C° 0 mm 4 mps 653 mmHg 42%
    18:00 +19°C° 0 mm 3 mps 653 mmHg 48%
    19:00 +17°C° 0 mm 2 mps 653 mmHg 53%
    20:00 +16°C° 0 mm 2 mps 653 mmHg 54%
    21:00 +16°C° 0 mm 2 mps 653 mmHg 55%
    22:00 +15°C° 0 mm 2 mps 653 mmHg 56%
    23:00 +15°C° 0 mm 2 mps 654 mmHg 56%

    Day after tomorrow, 29 July, Saturday

    Time Temperature Precipitation Wind Pressure Humidity
    00:00 +14°C° 0 mm 2 mps 654 mmHg 56%
    01:00 +14°C° 0 mm 2 mps 654 mmHg 55%
    02:00 +14°C° 0 mm 2 mps 654 mmHg 56%
    03:00 +14°C° 0 mm 2 mps 654 mmHg 56%
    04:00 +14°C° 0 mm 2 mps 654 mmHg 56%
    05:00 +16°C° 0 mm 2 mps 654 mmHg 53%
    06:00 +19°C° 0 mm 1 mps 655 mmHg 50%
    07:00 +20°C° 0 mm 1 mps 656 mmHg 47%
    08:00 +22°C° 0 mm 1 mps 656 mmHg 42%
    09:00 +25°C° 0 mm 1 mps 657 mmHg 38%
    10:00 +27°C° 0 mm 1 mps 657 mmHg 33%
    11:00 +27°C° 0 mm 1 mps 657 mmHg 32%
    12:00 +28°C° 0 mm 2 mps 657 mmHg 31%
    13:00 +29°C° 0 mm 2 mps 657 mmHg 30%
    14:00 +28°C° 0 mm 3 mps 657 mmHg 32%
    15:00 +28°C° 0 mm 3 mps 657 mmHg 33%
    16:00 +27°C° 0 mm 3 mps 656 mmHg 35%
    17:00 +25°C° 0 mm 2 mps 656 mmHg 41%
    18:00 +23°C° 0 mm 2 mps 656 mmHg 48%
    19:00 +21°C° 0 mm 1 mps 655 mmHg 54%
    20:00 +20°C° 0 mm 1 mps 656 mmHg 56%
    21:00 +19°C° 0 mm 1 mps 656 mmHg 58%
    22:00 +19°C° 0 mm 1 mps 656 mmHg 60%
    23:00 +19°C° 0 mm 1 mps 656 mmHg 60%

    30 July, Sunday

    Time Temperature Precipitation Wind Pressure Humidity
    00:00 +18°C° 0 mm 1 mps 655 mmHg 60%
    01:00 +18°C° 0 mm 1 mps 655 mmHg 61%
    02:00 +18°C° 0 mm 1 mps 655 mmHg 61%
    03:00 +18°C° 0 mm 1 mps 655 mmHg 61%
    04:00 +16°C° 0 mm 1 mps 655 mmHg 61%
    05:00 +19°C° 0 mm 1 mps 655 mmHg 57%
    06:00 +21°C° 0 mm 1 mps 656 mmHg 53%
    07:00 +23°C° 0 mm 1 mps 656 mmHg 49%
    08:00 +24°C° 0 mm 1 mps 657 mmHg 44%
    09:00 +26°C° 0 mm 1 mps 657 mmHg 39%
    10:00 +28°C° 0 mm 1 mps 658 mmHg 34%
    11:00 +29°C° 0 mm 2 mps 657 mmHg 33%
    12:00 +29°C° 0 mm 2 mps 657 mmHg 32%
    13:00 +30°C° 0 mm 3 mps 657 mmHg 31%
    14:00 +29°C° 0 mm 3 mps 657 mmHg 34%
    15:00 +28°C° 0 mm 3 mps 656 mmHg 37%
    16:00 +28°C° 0 mm 3 mps 656 mmHg 39%
    17:00 +26°C° 0 mm 2 mps 656 mmHg 44%
    18:00 +24°C° 0 mm 2 mps 655 mmHg 48%
    19:00 +21°C° 0 mm 2 mps 655 mmHg 52%
    20:00 +21°C° 0 mm 2 mps 655 mmHg 54%
    21:00 +20°C° 0 mm 2 mps 655 mmHg 55%
    22:00 +20°C° 0 mm 1 mps 655 mmHg 56%
    23:00 +20°C° 0 mm 1 mps 655 mmHg 57%

    31 July, Monday

    Time Temperature Precipitation Wind Pressure Humidity
    00:00 +20°C° 0 mm 1 mps 655 mmHg 58%
    01:00 +19°C° 0 mm 1 mps 655 mmHg 58%
    02:00 +19°C° 0 mm 1 mps 654 mmHg 59%
    03:00 +18°C° 0 mm 2 mps 654 mmHg 59%
    04:00 +17°C° 0 mm 2 mps 654 mmHg 59%
    05:00 +19°C° 0 mm 2 mps 655 mmHg 56%
    06:00 +22°C° 0 mm 1 mps 655 mmHg 52%
    07:00 +23°C° 0 mm 1 mps 655 mmHg 49%
    08:00 +25°C° 0 mm 2 mps 656 mmHg 44%
    09:00 +27°C° 0 mm 2 mps 656 mmHg 40%
    10:00 +29°C° 0 mm 2 mps 657 mmHg 36%
    11:00 +29°C° 0 mm 2 mps 657 mmHg 34%
    12:00 +30°C° 0 mm 3 mps 656 mmHg 33%
    13:00 +30°C° 0 mm 3 mps 656 mmHg 32%
    14:00 +29°C° 0 mm 3 mps 656 mmHg 35%
    15:00 +29°C° 0 mm 3 mps 655 mmHg 37%
    16:00 +28°C° 0 mm 3 mps 655 mmHg 40%
    17:00 +26°C° 0 mm 3 mps 655 mmHg 44%
    18:00 +24°C° 0 mm 3 mps 655 mmHg 49%
    19:00 +23°C° 0 mm 2 mps 654 mmHg 53%
    20:00 +21°C° 0 mm 2 mps 654 mmHg 55%
    21:00 +20°C° 0 mm 2 mps 655 mmHg 57%
    22:00 +20°C° 0 mm 2 mps 655 mmHg 59%
    23:00 +19°C° 0 mm 2 mps 654 mmHg 59%

    1 August, Tuesday

    Time Temperature Precipitation Wind Pressure Humidity
    00:00 +19°C° 0 mm 2 mps 654 mmHg 60%
    01:00 +18°C° 0 mm 2 mps 654 mmHg 60%
    02:00 +18°C° 0 mm 2 mps 654 mmHg 60%
    03:00 +17°C° 0 mm 2 mps 654 mmHg 60%
    04:00 +17°C° 0 mm 2 mps 654 mmHg 60%
    05:00 +19°C° 0 mm 2 mps 655 mmHg 56%
    06:00 +20°C° 0 mm 2 mps 655 mmHg 53%
    07:00 +23°C° 0 mm 2 mps 656 mmHg 50%
    08:00 +24°C° 0 mm 2 mps 656 mmHg 44%
    09:00 +26°C° 0 mm 2 mps 656 mmHg 38%
    10:00 +28°C° 0 mm 1 mps 657 mmHg 32%
    11:00 +29°C° 0 mm 2 mps 657 mmHg 30%
    12:00 +29°C° 0 mm 3 mps 657 mmHg 28%
    13:00 +30°C° 0 mm 3 mps 656 mmHg 27%
    14:00 +30°C° 0 mm 3 mps 656 mmHg 28%
    15:00 +29°C° 0 mm 3 mps 656 mmHg 29%
    16:00 +29°C° 0 mm 3 mps 656 mmHg 30%
    17:00 +27°C° 0 mm 3 mps 655 mmHg 37%
    18:00 +25°C° 0 mm 2 mps 655 mmHg 44%
    19:00 +21°C° 0 mm 2 mps 655 mmHg 50%
    20:00 +20°C° 0 mm 2 mps 655 mmHg 51%
    21:00 +21°C° 0 mm 1 mps 655 mmHg 52%
    22:00 +20°C° 0 mm 1 mps 655 mmHg 53%
    23:00 +19°C° 0 mm 1 mps 655 mmHg 51%
    Show more